Time,TemperatureF,DewpointF,PressureIn,WindDirection,WindDirectionDegrees,WindSpeedMPH,WindSpeedGustMPH,Humidity,HourlyPrecipIn,Conditions,Clouds,dailyrainin,SoftwareType,DateUTC
2013-01-15 00:02:00,16.0,8.0,30.43,WSW,240,3.0,3.0,71,0.00,,,0.00,,2013-01-15 06:02:00,
2013-01-15 00:12:00,16.0,8.0,30.43,WSW,240,3.0,3.0,71,0.00,,,0.00,,2013-01-15 06:12:00,
2013-01-15 00:22:00,16.0,9.0,30.43,SW,235,5.0,5.0,72,0.00,,,0.00,,2013-01-15 06:22:00,
2013-01-15 00:33:00,16.0,9.0,30.43,SW,234,5.0,5.0,72,0.00,,,0.00,,2013-01-15 06:33:00,
2013-01-15 00:43:00,16.0,9.0,30.43,SW,234,5.0,5.0,72,0.00,,,0.00,,2013-01-15 06:43:00,
2013-01-15 00:53:00,16.0,8.0,30.43,SW,235,2.0,3.0,71,0.00,,,0.00,,2013-01-15 06:53:00,
2013-01-15 01:02:00,16.0,8.0,30.43,WSW,238,4.0,4.0,71,0.00,,,0.00,,2013-01-15 07:02:00,
2013-01-15 01:12:00,16.0,8.0,30.43,WSW,238,4.0,4.0,71,0.00,,,0.00,,2013-01-15 07:12:00,
2013-01-15 01:22:00,15.0,8.0,30.42,SW,234,3.0,3.0,72,0.00,,,0.00,,2013-01-15 07:22:00,
2013-01-15 01:32:00,15.0,8.0,30.42,WSW,257,3.0,3.0,72,0.00,,,0.00,,2013-01-15 07:32:00,
2013-01-15 01:42:00,15.0,8.0,30.42,WSW,257,3.0,3.0,72,0.00,,,0.00,,2013-01-15 07:42:00,
2013-01-15 01:52:00,15.0,8.0,30.42,SW,234,4.0,5.0,72,0.00,,,0.00,,2013-01-15 07:52:00,
2013-01-15 02:02:00,15.0,8.0,30.42,WSW,237,3.0,4.0,73,0.00,,,0.00,,2013-01-15 08:02:00,
2013-01-15 02:12:00,15.0,8.0,30.42,WSW,237,3.0,4.0,73,0.00,,,0.00,,2013-01-15 08:12:00,
2013-01-15 02:22:00,15.0,8.0,30.43,SW,226,3.0,3.0,73,0.00,,,0.00,,2013-01-15 08:22:00,
2013-01-15 02:32:00,15.0,8.0,30.43,WSW,238,3.0,5.0,73,0.00,,,0.00,,2013-01-15 08:32:00,
2013-01-15 02:42:00,15.0,8.0,30.43,WSW,238,3.0,5.0,73,0.00,,,0.00,,2013-01-15 08:42:00,
2013-01-15 02:53:00,15.0,8.0,30.44,WSW,238,5.0,5.0,73,0.00,,,0.00,,2013-01-15 08:53:00,
2013-01-15 03:02:00,15.0,8.0,30.43,WSW,242,2.0,3.0,74,0.00,,,0.00,,2013-01-15 09:02:00,
2013-01-15 03:12:00,15.0,8.0,30.43,WSW,242,2.0,3.0,74,0.00,,,0.00,,2013-01-15 09:12:00,
2013-01-15 03:22:00,15.0,8.0,30.43,WSW,238,3.0,5.0,74,0.00,,,0.00,,2013-01-15 09:22:00,
2013-01-15 03:33:00,14.0,8.0,30.43,WSW,238,1.0,3.0,75,0.00,,,0.00,,2013-01-15 09:33:00,
2013-01-15 03:42:00,14.0,8.0,30.43,WSW,238,1.0,3.0,75,0.00,,,0.00,,2013-01-15 09:42:00,
2013-01-15 03:52:00,14.0,8.0,30.42,WSW,238,1.0,2.0,76,0.00,,,0.00,,2013-01-15 09:52:00,
2013-01-15 04:02:00,14.0,8.0,30.42,WSW,238,0.0,2.0,76,0.00,,,0.00,,2013-01-15 10:02:00,
2013-01-15 04:12:00,14.0,8.0,30.42,WSW,238,0.0,2.0,76,0.00,,,0.00,,2013-01-15 10:12:00,
2013-01-15 04:22:00,14.0,8.0,30.41,WSW,238,0.0,0.0,77,0.00,,,0.00,,2013-01-15 10:22:00,
2013-01-15 04:32:00,14.0,8.0,30.41,WSW,238,0.0,0.0,77,0.00,,,0.00,,2013-01-15 10:32:00,
2013-01-15 04:42:00,14.0,8.0,30.41,WSW,238,0.0,0.0,77,0.00,,,0.00,,2013-01-15 10:42:00,
2013-01-15 04:52:00,13.0,7.0,30.41,WSW,238,0.0,0.0,78,0.00,,,0.00,,2013-01-15 10:52:00,
2013-01-15 05:02:00,13.0,7.0,30.41,WSW,238,1.0,2.0,78,0.00,,,0.00,,2013-01-15 11:02:00,
2013-01-15 05:12:00,13.0,7.0,30.41,WSW,238,1.0,2.0,78,0.00,,,0.00,,2013-01-15 11:12:00,
2013-01-15 05:22:00,13.0,8.0,30.40,WSW,238,0.0,0.0,80,0.00,,,0.00,,2013-01-15 11:22:00,
2013-01-15 05:33:00,13.0,8.0,30.40,WSW,238,0.0,0.0,81,0.00,,,0.00,,2013-01-15 11:33:00,
2013-01-15 05:42:00,13.0,8.0,30.40,WSW,238,0.0,0.0,81,0.00,,,0.00,,2013-01-15 11:42:00,
2013-01-15 05:53:00,13.0,9.0,30.40,WSW,238,1.0,2.0,82,0.00,,,0.00,,2013-01-15 11:53:00,
2013-01-15 06:03:00,13.0,9.0,30.40,WSW,238,0.0,3.0,82,0.00,,,0.00,,2013-01-15 12:03:00,
2013-01-15 06:12:00,13.0,9.0,30.40,WSW,238,0.0,3.0,82,0.00,,,0.00,,2013-01-15 12:12:00,
2013-01-15 06:22:00,13.0,9.0,30.40,WSW,238,1.0,3.0,82,0.00,,,0.00,,2013-01-15 12:22:00,
2013-01-15 06:33:00,13.0,9.0,30.40,WSW,238,0.0,0.0,82,0.00,,,0.00,,2013-01-15 12:33:00,
2013-01-15 06:42:00,13.0,9.0,30.40,WSW,238,0.0,0.0,82,0.00,,,0.00,,2013-01-15 12:42:00,
2013-01-15 06:53:00,13.0,9.0,30.39,WSW,238,0.0,0.0,82,0.00,,,0.00,,2013-01-15 12:53:00,
2013-01-15 07:03:00,13.0,9.0,30.39,WSW,238,0.0,0.0,82,0.00,,,0.00,,2013-01-15 13:03:00,
2013-01-15 07:12:00,13.0,9.0,30.39,WSW,238,0.0,0.0,82,0.00,,,0.00,,2013-01-15 13:12:00,
2013-01-15 07:23:00,13.0,9.0,30.40,WSW,238,1.0,3.0,82,0.00,,,0.00,,2013-01-15 13:23:00,
2013-01-15 07:33:00,13.0,9.0,30.40,WSW,238,0.0,2.0,82,0.00,,,0.00,,2013-01-15 13:33:00,
2013-01-15 07:43:00,13.0,9.0,30.40,WSW,238,0.0,2.0,82,0.00,,,0.00,,2013-01-15 13:43:00,
2013-01-15 07:53:00,13.0,8.0,30.40,WSW,238,0.0,0.0,81,0.00,,,0.00,,2013-01-15 13:53:00,
2013-01-15 08:02:00,13.0,8.0,30.40,WSW,238,0.0,0.0,81,0.00,,,0.00,,2013-01-15 14:02:00,
2013-01-15 08:12:00,13.0,8.0,30.40,WSW,238,0.0,0.0,81,0.00,,,0.00,,2013-01-15 14:12:00,
2013-01-15 08:23:00,14.0,10.0,30.40,WSW,238,0.0,0.0,82,0.00,,,0.00,,2013-01-15 14:23:00,
2013-01-15 08:33:00,15.0,10.0,30.41,WSW,238,0.0,1.0,81,0.00,,,0.00,,2013-01-15 14:33:00,
2013-01-15 08:43:00,15.0,10.0,30.41,WSW,238,0.0,1.0,81,0.00,,,0.00,,2013-01-15 14:43:00,
2013-01-15 08:53:00,15.0,9.0,30.41,WSW,238,0.0,2.0,78,0.00,,,0.00,,2013-01-15 14:53:00,
2013-01-15 09:03:00,15.0,9.0,30.42,SSW,207,0.0,4.0,78,0.00,,,0.00,,2013-01-15 15:03:00,
2013-01-15 09:12:00,15.0,9.0,30.42,SSW,207,0.0,4.0,78,0.00,,,0.00,,2013-01-15 15:12:00,
2013-01-15 09:23:00,16.0,10.0,30.42,SSW,205,3.0,3.0,77,0.00,,,0.00,,2013-01-15 15:23:00,
2013-01-15 09:33:00,16.0,10.0,30.41,SSW,205,0.0,3.0,76,0.00,,,0.00,,2013-01-15 15:33:00,
2013-01-15 09:43:00,16.0,10.0,30.41,SSW,205,0.0,3.0,76,0.00,,,0.00,,2013-01-15 15:43:00,
2013-01-15 09:52:00,17.0,11.0,30.41,SSW,207,1.0,3.0,76,0.00,,,0.00,,2013-01-15 15:52:00,
2013-01-15 10:02:00,19.0,12.0,30.41,SW,219,1.0,4.0,73,0.00,,,0.00,,2013-01-15 16:02:00,
2013-01-15 10:12:00,19.0,12.0,30.41,SW,219,1.0,4.0,73,0.00,,,0.00,,2013-01-15 16:12:00,
2013-01-15 10:22:00,20.0,13.0,30.41,SW,229,1.0,3.0,73,0.00,,,0.00,,2013-01-15 16:22:00,
2013-01-15 10:33:00,22.0,13.0,30.41,SW,227,5.0,7.0,68,0.00,,,0.00,,2013-01-15 16:33:00,
2013-01-15 10:42:00,22.0,13.0,30.41,SW,227,5.0,7.0,68,0.00,,,0.00,,2013-01-15 16:42:00,
2013-01-15 10:53:00,22.0,13.0,30.41,WSW,237,4.0,7.0,67,0.00,,,0.00,,2013-01-15 16:53:00,
2013-01-15 11:03:00,23.0,14.0,30.39,SW,227,4.0,7.0,67,0.00,,,0.00,,2013-01-15 17:03:00,
2013-01-15 11:12:00,23.0,14.0,30.39,SW,227,4.0,7.0,67,0.00,,,0.00,,2013-01-15 17:12:00,
2013-01-15 11:22:00,24.0,14.0,30.39,SW,233,2.0,4.0,66,0.00,,,0.00,,2013-01-15 17:22:00,
2013-01-15 11:33:00,25.0,13.0,30.36,WSW,248,7.0,7.0,59,0.00,,,0.00,,2013-01-15 17:33:00,
2013-01-15 11:42:00,25.0,13.0,30.36,WSW,248,7.0,7.0,59,0.00,,,0.00,,2013-01-15 17:42:00,
2013-01-15 11:53:00,25.0,13.0,30.36,WSW,251,3.0,6.0,59,0.00,,,0.00,,2013-01-15 17:53:00,
2013-01-15 12:03:00,25.0,13.0,30.33,WSW,240,6.0,7.0,59,0.00,,,0.00,,2013-01-15 18:03:00,
2013-01-15 12:12:00,25.0,13.0,30.33,WSW,240,6.0,7.0,59,0.00,,,0.00,,2013-01-15 18:12:00,
2013-01-15 12:23:00,25.0,12.0,30.33,WSW,248,7.0,8.0,57,0.00,,,0.00,,2013-01-15 18:23:00,
2013-01-15 12:33:00,26.0,13.0,30.33,WSW,238,10.0,13.0,57,0.00,,,0.00,,2013-01-15 18:33:00,
2013-01-15 12:42:00,26.0,13.0,30.33,WSW,238,10.0,13.0,57,0.00,,,0.00,,2013-01-15 18:42:00,
2013-01-15 12:53:00,26.0,12.0,30.33,SW,218,10.0,10.0,56,0.00,,,0.00,,2013-01-15 18:53:00,
2013-01-15 13:03:00,27.0,13.0,30.33,WSW,244,4.0,8.0,55,0.00,,,0.00,,2013-01-15 19:03:00,
2013-01-15 13:12:00,27.0,13.0,30.33,WSW,244,4.0,8.0,55,0.00,,,0.00,,2013-01-15 19:12:00,
2013-01-15 13:23:00,27.0,13.0,30.33,SW,233,8.0,10.0,54,0.00,,,0.00,,2013-01-15 19:23:00,
2013-01-15 13:33:00,27.0,13.0,30.30,West,276,7.0,9.0,54,0.00,,,0.00,,2013-01-15 19:33:00,
2013-01-15 13:42:00,27.0,13.0,30.30,West,276,7.0,9.0,54,0.00,,,0.00,,2013-01-15 19:42:00,
2013-01-15 13:52:00,27.0,12.0,30.30,WSW,238,6.0,12.0,53,0.00,,,0.00,,2013-01-15 19:52:00,
2013-01-15 14:03:00,27.0,11.0,30.29,SW,232,6.0,10.0,51,0.00,,,0.00,,2013-01-15 20:03:00,
2013-01-15 14:12:00,27.0,11.0,30.29,SW,232,6.0,10.0,51,0.00,,,0.00,,2013-01-15 20:12:00,
2013-01-15 14:23:00,27.0,11.0,30.29,West,269,10.0,11.0,50,0.00,,,0.00,,2013-01-15 20:23:00,
2013-01-15 14:33:00,28.0,12.0,30.28,WSW,248,6.0,10.0,51,0.00,,,0.00,,2013-01-15 20:33:00,
2013-01-15 14:43:00,28.0,12.0,30.28,WSW,248,6.0,10.0,51,0.00,,,0.00,,2013-01-15 20:43:00,
2013-01-15 14:52:00,27.0,10.0,30.28,West,274,7.0,9.0,49,0.00,,,0.00,,2013-01-15 20:52:00,
2013-01-15 15:03:00,27.0,10.0,30.28,West,269,7.0,10.0,48,0.00,,,0.00,,2013-01-15 21:03:00,
2013-01-15 15:12:00,27.0,10.0,30.28,West,269,7.0,10.0,48,0.00,,,0.00,,2013-01-15 21:12:00,
2013-01-15 15:23:00,28.0,11.0,30.28,West,267,8.0,10.0,48,0.00,,,0.00,,2013-01-15 21:23:00,
2013-01-15 15:33:00,28.0,10.0,30.27,West,281,4.0,10.0,46,0.00,,,0.00,,2013-01-15 21:33:00,
2013-01-15 15:43:00,28.0,10.0,30.27,West,281,4.0,10.0,46,0.00,,,0.00,,2013-01-15 21:43:00,
2013-01-15 15:52:00,28.0,10.0,30.27,West,281,4.0,10.0,46,0.00,,,0.00,,2013-01-15 21:52:00,
2013-01-15 16:03:00,28.0,11.0,30.27,WSW,250,5.0,8.0,48,0.00,,,0.00,,2013-01-15 22:03:00,
2013-01-15 16:12:00,28.0,11.0,30.27,WSW,250,5.0,8.0,48,0.00,,,0.00,,2013-01-15 22:12:00,
2013-01-15 16:23:00,28.0,10.0,30.27,WSW,248,8.0,9.0,47,0.00,,,0.00,,2013-01-15 22:23:00,
2013-01-15 16:33:00,28.0,12.0,30.27,SW,220,3.0,6.0,50,0.00,,,0.00,,2013-01-15 22:33:00,
2013-01-15 16:43:00,28.0,12.0,30.27,SW,220,3.0,6.0,50,0.00,,,0.00,,2013-01-15 22:43:00,
2013-01-15 16:52:00,27.0,11.0,30.27,WSW,251,4.0,7.0,50,0.00,,,0.00,,2013-01-15 22:52:00,
2013-01-15 17:02:00,26.0,11.0,30.26,SW,227,3.0,4.0,53,0.00,,,0.00,,2013-01-15 23:02:00,
2013-01-15 17:12:00,26.0,11.0,30.26,SW,227,3.0,4.0,53,0.00,,,0.00,,2013-01-15 23:12:00,
2013-01-15 17:22:00,26.0,12.0,30.26,SW,229,3.0,3.0,54,0.00,,,0.00,,2013-01-15 23:22:00,
2013-01-15 17:33:00,26.0,13.0,30.26,SW,229,3.0,4.0,57,0.00,,,0.00,,2013-01-15 23:33:00,
2013-01-15 17:42:00,26.0,13.0,30.26,SW,229,3.0,4.0,57,0.00,,,0.00,,2013-01-15 23:42:00,
2013-01-15 17:53:00,25.0,12.0,30.26,SW,232,4.0,4.0,57,0.00,,,0.00,,2013-01-15 23:53:00,
2013-01-15 18:02:00,25.0,12.0,30.26,SW,233,3.0,4.0,58,0.00,,,0.00,,2013-01-16 00:02:00,
2013-01-15 18:12:00,25.0,12.0,30.26,SW,233,3.0,4.0,58,0.00,,,0.00,,2013-01-16 00:12:00,
2013-01-15 18:22:00,25.0,12.0,30.26,SW,233,1.0,3.0,58,0.00,,,0.00,,2013-01-16 00:22:00,
2013-01-15 18:33:00,24.0,13.0,30.25,SSW,210,4.0,5.0,61,0.00,,,0.00,,2013-01-16 00:33:00,
2013-01-15 18:43:00,24.0,13.0,30.25,SSW,210,4.0,5.0,61,0.00,,,0.00,,2013-01-16 00:43:00,
2013-01-15 18:52:00,24.0,13.0,30.25,SSW,200,3.0,3.0,61,0.00,,,0.00,,2013-01-16 00:52:00,
2013-01-15 19:03:00,24.0,13.0,30.24,WSW,237,3.0,3.0,63,0.00,,,0.00,,2013-01-16 01:03:00,
2013-01-15 19:12:00,24.0,13.0,30.24,WSW,237,3.0,3.0,63,0.00,,,0.00,,2013-01-16 01:12:00,
2013-01-15 19:22:00,24.0,14.0,30.24,SSW,200,3.0,3.0,64,0.00,,,0.00,,2013-01-16 01:22:00,
2013-01-15 19:33:00,23.0,13.0,30.22,SW,228,2.0,3.0,66,0.00,,,0.00,,2013-01-16 01:33:00,
2013-01-15 19:42:00,23.0,13.0,30.22,SW,228,2.0,3.0,66,0.00,,,0.00,,2013-01-16 01:42:00,
2013-01-15 19:52:00,23.0,14.0,30.22,SW,228,2.0,3.0,67,0.00,,,0.00,,2013-01-16 01:52:00,
2013-01-15 20:03:00,22.0,13.0,30.21,SW,231,3.0,3.0,68,0.00,,,0.00,,2013-01-16 02:03:00,
2013-01-15 20:12:00,22.0,13.0,30.21,SW,231,3.0,3.0,68,0.00,,,0.00,,2013-01-16 02:12:00,
2013-01-15 20:22:00,22.0,13.0,30.21,SW,231,2.0,3.0,69,0.00,,,0.00,,2013-01-16 02:22:00,
2013-01-15 20:32:00,21.0,13.0,30.19,SW,231,0.0,2.0,70,0.00,,,0.00,,2013-01-16 02:32:00,
2013-01-15 20:42:00,21.0,13.0,30.19,SW,231,0.0,2.0,70,0.00,,,0.00,,2013-01-16 02:42:00,
2013-01-15 20:52:00,21.0,13.0,30.19,SSW,194,1.0,2.0,71,0.00,,,0.00,,2013-01-16 02:52:00,
2013-01-15 21:03:00,21.0,13.0,30.17,SW,228,2.0,3.0,72,0.00,,,0.00,,2013-01-16 03:03:00,
2013-01-15 21:12:00,21.0,13.0,30.17,SW,231,2.0,3.0,72,0.00,,,0.00,,2013-01-16 03:12:00,
2013-01-15 21:22:00,21.0,13.0,30.17,SW,231,2.0,3.0,72,0.00,,,0.00,,2013-01-16 03:22:00,
2013-01-15 21:32:00,20.0,13.0,30.16,SW,232,2.0,3.0,73,0.00,,,0.00,,2013-01-16 03:32:00,
2013-01-15 21:42:00,20.0,13.0,30.16,SW,232,2.0,3.0,73,0.00,,,0.00,,2013-01-16 03:42:00,
2013-01-15 21:52:00,20.0,13.0,30.16,SW,234,2.0,3.0,74,0.00,,,0.00,,2013-01-16 03:52:00,
2013-01-15 22:02:00,20.0,13.0,30.15,SW,219,3.0,3.0,74,0.00,,,0.00,,2013-01-16 04:02:00,
2013-01-15 22:12:00,20.0,13.0,30.15,SW,219,3.0,3.0,74,0.00,,,0.00,,2013-01-16 04:12:00,
2013-01-15 22:22:00,20.0,13.0,30.15,SW,220,2.0,3.0,75,0.00,,,0.00,,2013-01-16 04:22:00,
2013-01-15 22:32:00,19.0,12.0,30.13,SW,220,2.0,3.0,75,0.00,,,0.00,,2013-01-16 04:32:00,
2013-01-15 22:42:00,19.0,12.0,30.13,SW,220,2.0,3.0,75,0.00,,,0.00,,2013-01-16 04:42:00,
2013-01-15 22:52:00,19.0,13.0,30.13,South,187,2.0,2.0,76,0.00,,,0.00,,2013-01-16 04:52:00,
2013-01-15 23:03:00,19.0,13.0,30.13,SW,222,3.0,3.0,76,0.00,,,0.00,,2013-01-16 05:03:00,
2013-01-15 23:12:00,19.0,13.0,30.13,SW,222,3.0,3.0,76,0.00,,,0.00,,2013-01-16 05:12:00,
2013-01-15 23:22:00,19.0,13.0,30.13,SW,223,3.0,4.0,76,0.00,,,0.00,,2013-01-16 05:22:00,
2013-01-15 23:32:00,18.0,12.0,30.12,SW,236,0.0,2.0,77,0.00,,,0.00,,2013-01-16 05:32:00,
2013-01-15 23:42:00,18.0,12.0,30.12,SW,236,0.0,2.0,77,0.00,,,0.00,,2013-01-16 05:42:00,
2013-01-15 23:53:00,18.0,12.0,30.12,SW,236,3.0,3.0,77,0.00,,,0.00,,2013-01-16 05:53:00,